CPA884 VHHH-KLAX

Flight info

Callsign CPA884
Flight time N/A
Altitude 33000
Route DALOL V631 ENVAR M750 MUKEP Y891 OVSUN/N0488F340 Y893 IGMIS/N0486F330 Y57 POROT Y809 IDLAN Y812 ADNAP OTR5 KALNA DCT 43N160E/N0484F350 44N170E 42N180E 39N170W 38N160W/N0471F370 38N150W 37N140W 35N130W/N0474F390 DCT AUDIA DCT RZS DCT SADDE SADDE8
Aircraft B77W/H-SDE1E2E3FGHIJ2J3J4J5M1RWXY/LB1D1

Departure

Time 2026-05-05 06:29
Airport Hong Kong International Airport (VHHH)

Arrival

Time N/A
Airport Los Angeles International Airport (KLAX)
Time Latitude Longitude Altitude Speed Heading
2026-05-05 05:53 22.31392 113.92797 36 ft 0 kts 161°
2026-05-05 05:57 22.31391 113.92797 36 ft 0 kts 161°
2026-05-05 06:10 22.31404 113.92793 35 ft 2 kts 171°
2026-05-05 06:10 22.31420 113.92790 35 ft 2 kts 178°
2026-05-05 06:10 22.31437 113.92791 35 ft 2 kts 189°
2026-05-05 06:10 22.31452 113.92795 34 ft 2 kts 202°
2026-05-05 06:11 22.31467 113.92803 35 ft 2 kts 214°
2026-05-05 06:11 22.31480 113.92814 35 ft 2 kts 225°
2026-05-05 06:11 22.31491 113.92828 34 ft 2 kts 234°
2026-05-05 06:11 22.31500 113.92842 35 ft 2 kts 241°
2026-05-05 06:12 22.31507 113.92858 33 ft 2 kts 247°
2026-05-05 06:12 22.31511 113.92868 34 ft 1 kts 250°
2026-05-05 06:12 22.31511 113.92869 34 ft 0 kts 250°
2026-05-05 06:20 22.31511 113.92868 34 ft 1 kts 251°
2026-05-05 06:20 22.31500 113.92834 34 ft 9 kts 251°
2026-05-05 06:20 22.31497 113.92751 37 ft 7 kts 286°
2026-05-05 06:21 22.31526 113.92676 37 ft 15 kts 295°
2026-05-05 06:21 22.31581 113.92555 37 ft 20 kts 299°
2026-05-05 06:21 22.31637 113.92433 37 ft 16 kts 290°
2026-05-05 06:21 22.31616 113.92290 37 ft 23 kts 251°
2026-05-05 06:22 22.31555 113.92101 37 ft 30 kts 250°
2026-05-05 06:22 22.31479 113.91867 37 ft 36 kts 251°
2026-05-05 06:22 22.31397 113.91613 37 ft 38 kts 251°
2026-05-05 06:22 22.31311 113.91343 37 ft 38 kts 251°
2026-05-05 06:23 22.31228 113.91080 37 ft 36 kts 251°
2026-05-05 06:23 22.31153 113.90854 37 ft 26 kts 251°
2026-05-05 06:23 22.31095 113.90672 37 ft 26 kts 251°
2026-05-05 06:23 22.31036 113.90490 36 ft 26 kts 251°
2026-05-05 06:24 22.30977 113.90309 37 ft 25 kts 250°
2026-05-05 06:24 22.30921 113.90132 37 ft 23 kts 250°
2026-05-05 06:24 22.30905 113.90084 37 ft 5 kts 250°
2026-05-05 06:24 22.30887 113.90029 37 ft 0 kts 250°
2026-05-05 06:25 22.30880 113.90007 37 ft 6 kts 250°
2026-05-05 06:25 22.30872 113.89982 37 ft 4 kts 250°
2026-05-05 06:25 22.30855 113.89931 37 ft 10 kts 250°
2026-05-05 06:25 22.30848 113.89908 37 ft 1 kts 254°
2026-05-05 06:26 22.30847 113.89887 37 ft 5 kts 271°
2026-05-05 06:26 22.30864 113.89842 37 ft 8 kts 309°
2026-05-05 06:26 22.30915 113.89815 37 ft 8 kts 337°
2026-05-05 06:26 22.30970 113.89798 37 ft 8 kts 346°
2026-05-05 06:27 22.31035 113.89781 34 ft 10 kts 346°
2026-05-05 06:27 22.31114 113.89855 35 ft 12 kts 72°
2026-05-05 06:27 22.31117 113.89866 35 ft 0 kts 73°
2026-05-05 06:28 22.31145 113.89967 35 ft 30 kts 73°
2026-05-05 06:28 22.31289 113.90410 35 ft 94 kts 71°
2026-05-05 06:28 22.31571 113.91284 37 ft 150 kts 71°
2026-05-05 06:29 22.31968 113.92507 41 ft 192 kts 70°
2026-05-05 06:29 22.32480 113.93894 398 ft 197 kts 67°
2026-05-05 06:29 22.33025 113.95283 805 ft 207 kts 68°
2026-05-05 06:29 22.33555 113.96708 1406 ft 205 kts 70°
2026-05-05 06:30 22.34153 113.98170 1719 ft 216 kts 60°
2026-05-05 06:30 22.35054 113.99472 2189 ft 215 kts 51°
2026-05-05 06:30 22.35966 114.00735 2494 ft 223 kts 55°
2026-05-05 06:30 22.36903 114.02107 2970 ft 224 kts 55°
2026-05-05 06:31 22.37810 114.03469 3488 ft 224 kts 55°
2026-05-05 06:31 22.38689 114.04868 3898 ft 228 kts 58°
2026-05-05 06:31 22.39560 114.06340 4208 ft 236 kts 59°
2026-05-05 06:31 22.40423 114.07858 4644 ft 236 kts 62°
2026-05-05 06:32 22.40990 114.09519 4805 ft 245 kts 88°
2026-05-05 06:32 22.40683 114.11374 4712 ft 260 kts 121°
2026-05-05 06:32 22.39636 114.12966 5075 ft 262 kts 129°
2026-05-05 06:32 22.38537 114.14587 5478 ft 271 kts 128°
2026-05-05 06:33 22.37432 114.16264 5973 ft 278 kts 127°
2026-05-05 06:33 22.36471 114.18099 6417 ft 283 kts 115°
2026-05-05 06:33 22.35735 114.20060 6862 ft 286 kts 115°
2026-05-05 06:33 22.34964 114.22034 7419 ft 286 kts 116°
2026-05-05 06:34 22.34169 114.24018 7905 ft 290 kts 117°
2026-05-05 06:34 22.33303 114.26012 8309 ft 294 kts 125°
2026-05-05 06:34 22.31894 114.27573 8696 ft 291 kts 154°
2026-05-05 06:34 22.30113 114.28489 9141 ft 289 kts 160°
2026-05-05 06:35 22.28257 114.29385 9651 ft 294 kts 159°
2026-05-05 06:35 22.26391 114.30296 10203 ft 295 kts 159°
2026-05-05 06:35 22.24470 114.31236 10441 ft 313 kts 159°
2026-05-05 06:35 22.22514 114.32431 10609 ft 336 kts 149°
2026-05-05 06:36 22.20564 114.33965 10724 ft 357 kts 146°
2026-05-05 06:36 22.18545 114.35643 10881 ft 375 kts 145°
2026-05-05 06:36 22.16446 114.37377 11258 ft 385 kts 146°
2026-05-05 06:36 22.14281 114.39134 11764 ft 392 kts 146°
2026-05-05 06:37 22.12074 114.40894 12407 ft 396 kts 147°
2026-05-05 06:37 22.09845 114.42654 13135 ft 399 kts 147°
2026-05-05 06:37 22.07594 114.44426 13799 ft 403 kts 147°
2026-05-05 06:37 22.05319 114.46217 14340 ft 407 kts 147°
2026-05-05 06:38 22.03015 114.48031 14886 ft 412 kts 147°
2026-05-05 06:38 22.00688 114.49865 15442 ft 416 kts 147°
2026-05-05 06:38 21.98338 114.51714 16019 ft 420 kts 148°
2026-05-05 06:38 21.96032 114.53670 16570 ft 426 kts 139°
2026-05-05 06:39 21.94098 114.56153 17051 ft 438 kts 130°
2026-05-05 06:39 21.92312 114.58819 17601 ft 442 kts 129°
2026-05-05 06:39 21.90515 114.61524 18140 ft 445 kts 129°
2026-05-05 06:39 21.88708 114.64194 18624 ft 448 kts 130°
2026-05-05 06:40 21.86816 114.66934 19064 ft 453 kts 130°
2026-05-05 06:40 21.84911 114.69652 19482 ft 457 kts 130°
2026-05-05 06:40 21.83005 114.72352 19906 ft 461 kts 131°
2026-05-05 06:40 21.81055 114.75109 20344 ft 465 kts 131°
2026-05-05 06:41 21.79090 114.77890 20757 ft 469 kts 130°
2026-05-05 06:41 21.77108 114.80696 21141 ft 473 kts 130°
2026-05-05 06:41 21.75294 114.83655 21414 ft 480 kts 117°
2026-05-05 06:41 21.74288 114.87111 21695 ft 491 kts 98°
2026-05-05 06:42 21.74190 114.90780 22077 ft 491 kts 89°
2026-05-05 06:42 21.74269 114.94467 22429 ft 496 kts 89°
2026-05-05 06:42 21.74328 114.98194 22802 ft 500 kts 89°
2026-05-05 06:42 21.74358 115.01869 23196 ft 504 kts 90°
2026-05-05 06:43 21.74367 115.05651 23554 ft 508 kts 90°
2026-05-05 06:43 21.74363 115.09462 23861 ft 511 kts 90°
2026-05-05 06:43 21.74354 115.13290 24201 ft 513 kts 90°
2026-05-05 06:43 21.74347 115.17136 24553 ft 515 kts 90°
2026-05-05 06:44 21.74342 115.20997 24893 ft 517 kts 90°
2026-05-05 06:44 21.74336 115.24877 25207 ft 520 kts 90°
2026-05-05 06:44 21.74331 115.28777 25518 ft 523 kts 90°
2026-05-05 06:44 21.74326 115.32698 25842 ft 525 kts 90°
2026-05-05 06:45 21.74321 115.36633 26147 ft 527 kts 90°
2026-05-05 06:45 21.74316 115.40588 26454 ft 530 kts 90°
2026-05-05 06:45 21.74310 115.44564 26749 ft 532 kts 90°
2026-05-05 06:45 21.74305 115.48550 27052 ft 535 kts 90°
2026-05-05 06:46 21.74299 115.52562 27352 ft 537 kts 90°
2026-05-05 06:46 21.74294 115.56582 27641 ft 539 kts 90°
2026-05-05 06:46 21.74288 115.60630 27916 ft 542 kts 90°
2026-05-05 06:46 21.74282 115.64633 28183 ft 544 kts 90°
2026-05-05 06:47 21.74276 115.68706 28472 ft 546 kts 90°
2026-05-05 06:47 21.74270 115.72799 28742 ft 548 kts 90°
2026-05-05 06:47 21.74264 115.76902 28989 ft 550 kts 91°
2026-05-05 06:47 21.74258 115.81024 29230 ft 552 kts 91°
2026-05-05 06:48 21.74251 115.85153 29513 ft 552 kts 91°
2026-05-05 06:48 21.74247 115.87888 29758 ft 552 kts 91°
2026-05-05 06:48 21.74241 115.92006 30128 ft 550 kts 91°
2026-05-05 06:48 21.74234 115.96118 30458 ft 549 kts 91°
2026-05-05 06:49 21.74228 116.00181 30798 ft 550 kts 91°
2026-05-05 06:49 21.74222 116.04289 30927 ft 553 kts 91°
2026-05-05 06:49 21.74215 116.08427 30948 ft 553 kts 91°
2026-05-05 06:50 21.74203 116.16653 30969 ft 548 kts 91°
2026-05-05 06:50 21.74192 116.24835 30989 ft 546 kts 91°
2026-05-05 06:51 21.74180 116.33008 30982 ft 547 kts 91°
2026-05-05 06:51 21.74169 116.41187 30986 ft 547 kts 91°
2026-05-05 06:52 21.74158 116.49379 30993 ft 548 kts 91°
2026-05-05 06:52 21.74147 116.57585 30983 ft 549 kts 91°
2026-05-05 06:53 21.74136 116.65803 30989 ft 550 kts 91°
2026-05-05 06:53 21.74125 116.74030 30980 ft 550 kts 91°
2026-05-05 06:54 21.74114 116.82258 30995 ft 551 kts 91°
2026-05-05 06:54 21.74103 116.90510 30988 ft 552 kts 91°
2026-05-05 06:55 21.74092 116.98769 30977 ft 553 kts 91°
2026-05-05 06:55 21.74081 117.06970 30977 ft 553 kts 91°
2026-05-05 06:56 21.74071 117.15246 30998 ft 553 kts 91°
2026-05-05 06:56 21.74060 117.23521 30985 ft 553 kts 91°
2026-05-05 06:57 21.74050 117.31733 30972 ft 552 kts 91°
2026-05-05 06:57 21.74041 117.39979 30985 ft 551 kts 91°
2026-05-05 06:58 21.74032 117.48214 30968 ft 550 kts 91°
2026-05-05 06:58 21.74024 117.56439 30972 ft 549 kts 91°
2026-05-05 06:59 21.74016 117.64638 30972 ft 548 kts 91°
2026-05-05 06:59 21.74009 117.72834 30971 ft 548 kts 91°
2026-05-05 07:00 21.74002 117.81020 30983 ft 548 kts 91°
2026-05-05 07:00 21.73995 117.89213 30977 ft 548 kts 91°
2026-05-05 07:01 21.73988 117.97409 30984 ft 548 kts 91°
2026-05-05 07:01 21.73981 118.05543 30971 ft 549 kts 91°
2026-05-05 07:02 21.73975 118.13749 30976 ft 548 kts 91°
2026-05-05 07:02 21.73969 118.21954 30979 ft 548 kts 91°
2026-05-05 07:03 21.73963 118.30156 30967 ft 548 kts 91°
2026-05-05 07:03 21.73957 118.38360 30961 ft 548 kts 91°
2026-05-05 07:04 21.73952 118.46502 30979 ft 548 kts 91°
2026-05-05 07:04 21.73948 118.54757 30973 ft 549 kts 91°
2026-05-05 07:05 21.73943 118.62965 30978 ft 549 kts 91°
2026-05-05 07:05 21.73938 118.71182 30978 ft 550 kts 91°
2026-05-05 07:06 21.73934 118.79353 30974 ft 550 kts 91°
2026-05-05 07:06 21.73929 118.87581 30977 ft 550 kts 91°
2026-05-05 07:07 21.73925 118.95805 30953 ft 550 kts 91°
2026-05-05 07:07 21.73921 119.03947 30972 ft 549 kts 91°
2026-05-05 07:08 21.73918 119.12161 30958 ft 548 kts 91°
2026-05-05 07:08 21.73915 119.20355 30976 ft 547 kts 91°
2026-05-05 07:09 21.73913 119.28539 30969 ft 547 kts 91°
2026-05-05 07:09 21.73910 119.36729 30958 ft 547 kts 91°
2026-05-05 07:10 21.73908 119.44911 30971 ft 546 kts 91°
2026-05-05 07:10 21.73907 119.53024 30968 ft 547 kts 91°
2026-05-05 07:11 21.73905 119.61200 30964 ft 546 kts 91°
2026-05-05 07:11 21.73904 119.69370 30965 ft 546 kts 91°
2026-05-05 07:12 21.73902 119.77543 30959 ft 546 kts 91°
2026-05-05 07:12 21.73902 119.85710 30954 ft 546 kts 91°
2026-05-05 07:13 21.73901 119.93870 30974 ft 546 kts 91°
2026-05-05 07:13 21.73901 120.01963 30967 ft 547 kts 91°
2026-05-05 07:14 21.73900 120.10152 30958 ft 548 kts 91°
2026-05-05 07:14 21.73899 120.18359 30953 ft 549 kts 91°
2026-05-05 07:15 21.73899 120.26562 30961 ft 549 kts 91°
2026-05-05 07:15 21.73898 120.34772 30959 ft 549 kts 91°
2026-05-05 07:16 21.73898 120.42978 30952 ft 548 kts 91°
2026-05-05 07:16 21.73898 120.51172 30956 ft 547 kts 91°
2026-05-05 07:17 21.73899 120.59291 30956 ft 546 kts 91°
2026-05-05 07:17 21.73900 120.67457 30956 ft 545 kts 91°
2026-05-05 07:18 21.73901 120.75609 30952 ft 545 kts 91°
2026-05-05 07:18 21.73903 120.83766 30959 ft 545 kts 91°
2026-05-05 07:19 21.73905 120.91914 30959 ft 545 kts 91°
2026-05-05 07:19 21.73907 121.00054 30948 ft 545 kts 91°
2026-05-05 07:20 21.73909 121.08151 30959 ft 545 kts 91°
2026-05-05 07:20 21.73912 121.16308 30964 ft 545 kts 91°
2026-05-05 07:21 21.73914 121.24467 30954 ft 546 kts 91°
2026-05-05 07:21 21.73917 121.32628 30960 ft 545 kts 91°
2026-05-05 07:22 21.73920 121.40791 30960 ft 546 kts 91°
2026-05-05 07:22 21.73923 121.48967 30957 ft 547 kts 91°
2026-05-05 07:23 21.73926 121.57149 30952 ft 547 kts 91°
2026-05-05 07:23 21.73929 121.65332 30950 ft 547 kts 91°
2026-05-05 07:24 21.73932 121.73510 30945 ft 547 kts 91°
2026-05-05 07:24 21.73935 121.81689 30947 ft 546 kts 91°
2026-05-05 07:25 21.73939 121.89852 30953 ft 546 kts 91°
2026-05-05 07:25 21.73943 121.98010 30941 ft 545 kts 91°
2026-05-05 07:26 21.73947 122.06013 30950 ft 544 kts 91°
2026-05-05 07:26 21.73952 122.14150 30951 ft 544 kts 91°
2026-05-05 07:27 21.73957 122.22290 30949 ft 544 kts 91°
2026-05-05 07:27 21.73962 122.30420 30948 ft 544 kts 91°
2026-05-05 07:28 21.73968 122.38551 30952 ft 544 kts 91°
2026-05-05 07:28 21.73973 122.46680 30942 ft 543 kts 91°
2026-05-05 07:29 21.73979 122.54806 30949 ft 543 kts 91°
2026-05-05 07:29 21.73986 122.62936 30943 ft 543 kts 91°
2026-05-05 07:30 21.73993 122.71053 30946 ft 542 kts 91°
2026-05-05 07:30 21.74004 122.83165 30942 ft 541 kts 91°
2026-05-05 07:31 21.74012 122.91261 30942 ft 541 kts 91°
2026-05-05 07:31 21.74021 122.99344 30946 ft 540 kts 91°
2026-05-05 07:32 21.74030 123.07337 30949 ft 539 kts 91°
2026-05-05 07:32 21.74040 123.15411 30949 ft 539 kts 91°
2026-05-05 07:33 21.74049 123.23475 30945 ft 539 kts 91°
2026-05-05 07:33 21.74059 123.31496 30946 ft 539 kts 91°
2026-05-05 07:34 21.74069 123.39568 30951 ft 540 kts 91°
2026-05-05 07:34 21.74080 123.47641 30947 ft 540 kts 91°
2026-05-05 07:35 21.74090 123.55723 30948 ft 540 kts 91°
2026-05-05 07:35 21.74099 123.62505 30950 ft 541 kts 91°
2026-05-05 07:36 21.74110 123.70586 30942 ft 541 kts 91°
2026-05-05 07:36 21.74121 123.78620 30947 ft 541 kts 91°
2026-05-05 07:37 21.74133 123.86700 30959 ft 541 kts 91°
2026-05-05 07:37 21.74144 123.94799 30957 ft 541 kts 91°
2026-05-05 07:38 21.74156 124.02807 30947 ft 541 kts 91°
2026-05-05 07:38 21.74167 124.10902 30949 ft 541 kts 91°
2026-05-05 07:39 21.74179 124.18997 30949 ft 541 kts 91°
2026-05-05 07:39 21.74191 124.27092 30944 ft 541 kts 91°
2026-05-05 07:40 21.74203 124.35190 30949 ft 541 kts 91°
2026-05-05 07:40 21.74215 124.43284 30950 ft 542 kts 91°
2026-05-05 07:41 21.74227 124.51386 30946 ft 542 kts 91°
2026-05-05 07:41 21.74239 124.59488 30950 ft 542 kts 91°
2026-05-05 07:42 21.74252 124.67595 30950 ft 542 kts 91°
2026-05-05 07:42 21.74264 124.75704 30942 ft 542 kts 91°
2026-05-05 07:43 21.74276 124.83811 30949 ft 542 kts 91°
2026-05-05 07:43 21.74289 124.91926 30947 ft 542 kts 91°
2026-05-05 07:44 21.74301 125.00026 30958 ft 542 kts 91°
2026-05-05 07:44 21.74314 125.08016 30950 ft 543 kts 91°
2026-05-05 07:45 21.74326 125.16132 30950 ft 543 kts 91°
2026-05-05 07:45 21.74339 125.24250 30950 ft 543 kts 91°
2026-05-05 07:46 21.74352 125.32370 30945 ft 543 kts 91°
2026-05-05 07:46 21.74364 125.40485 30953 ft 543 kts 91°
2026-05-05 07:47 21.74377 125.48601 30951 ft 543 kts 91°
2026-05-05 07:47 21.74390 125.56730 30945 ft 543 kts 91°
2026-05-05 07:48 21.74403 125.64855 30955 ft 543 kts 91°
2026-05-05 07:48 21.74417 125.72988 30952 ft 544 kts 91°
2026-05-05 07:49 21.74430 125.81120 30948 ft 544 kts 91°
2026-05-05 07:49 21.74444 125.89249 30952 ft 544 kts 91°
2026-05-05 07:50 21.74459 125.97384 30949 ft 543 kts 91°
2026-05-05 07:50 21.74473 126.05378 30965 ft 543 kts 91°
2026-05-05 07:51 21.74488 126.13508 30956 ft 544 kts 91°
2026-05-05 07:51 21.74502 126.21637 30955 ft 544 kts 91°
2026-05-05 07:52 21.74517 126.29773 30954 ft 544 kts 91°
2026-05-05 07:52 21.74533 126.37913 30954 ft 543 kts 91°
2026-05-05 07:53 21.74549 126.46042 30954 ft 543 kts 91°
2026-05-05 07:53 21.74565 126.54166 30956 ft 543 kts 91°
2026-05-05 07:54 21.74583 126.62285 30959 ft 543 kts 91°
2026-05-05 07:54 21.74601 126.70399 30958 ft 542 kts 91°
2026-05-05 07:55 21.74619 126.78505 30952 ft 542 kts 91°
2026-05-05 07:55 21.74639 126.86598 30958 ft 541 kts 91°
2026-05-05 07:56 21.74659 126.94634 30963 ft 541 kts 91°
2026-05-05 07:56 21.74680 127.02651 30953 ft 540 kts 91°
2026-05-05 07:57 21.74701 127.10732 30961 ft 540 kts 91°
2026-05-05 07:57 21.74724 127.18818 30963 ft 541 kts 91°
2026-05-05 07:58 21.74746 127.26907 30961 ft 541 kts 91°
2026-05-05 07:58 21.74770 127.35005 30960 ft 541 kts 91°
2026-05-05 07:59 21.74793 127.43104 30956 ft 542 kts 91°
2026-05-05 07:59 21.74817 127.51207 30952 ft 542 kts 91°
2026-05-05 08:00 21.74842 127.59309 30964 ft 541 kts 91°
2026-05-05 08:00 21.74867 127.67349 30959 ft 541 kts 91°
2026-05-05 08:01 21.74893 127.75440 30961 ft 540 kts 90°
2026-05-05 08:01 21.74920 127.83514 30955 ft 539 kts 90°
2026-05-05 08:02 21.74947 127.91572 30964 ft 538 kts 90°
2026-05-05 08:02 21.74974 127.99621 30964 ft 538 kts 90°
2026-05-05 08:03 21.75002 128.07576 30977 ft 537 kts 90°
2026-05-05 08:03 21.75030 128.15611 30966 ft 537 kts 90°
2026-05-05 08:04 21.75059 128.23648 30967 ft 537 kts 90°
2026-05-05 08:04 21.75088 128.31695 30955 ft 538 kts 90°
2026-05-05 08:05 21.75117 128.39740 30966 ft 538 kts 90°
2026-05-05 08:05 21.75147 128.47781 30968 ft 538 kts 90°
2026-05-05 08:06 21.75177 128.55829 30967 ft 538 kts 90°
2026-05-05 08:06 21.75208 128.63875 30965 ft 538 kts 90°
2026-05-05 08:07 21.75239 128.71920 30969 ft 538 kts 90°
2026-05-05 08:07 21.75270 128.79960 30967 ft 537 kts 90°
2026-05-05 08:08 21.75301 128.87995 30961 ft 537 kts 90°
2026-05-05 08:08 21.75333 128.96020 30962 ft 536 kts 90°
2026-05-05 08:09 21.75364 129.03961 30970 ft 536 kts 90°
2026-05-05 08:09 21.75396 129.11925 30969 ft 536 kts 90°
2026-05-05 08:10 21.75428 129.19932 30973 ft 535 kts 90°
2026-05-05 08:10 21.75460 129.27943 30963 ft 535 kts 90°
2026-05-05 08:11 21.75493 129.35949 30966 ft 535 kts 90°
2026-05-05 08:11 21.75525 129.43938 30971 ft 534 kts 90°
2026-05-05 08:12 21.75558 129.51909 30967 ft 533 kts 90°
2026-05-05 08:12 21.75591 129.59880 30968 ft 532 kts 90°
2026-05-05 08:13 21.75624 129.67829 30966 ft 531 kts 90°
2026-05-05 08:13 21.75657 129.75763 30967 ft 530 kts 90°
2026-05-05 08:14 21.75691 129.83693 30971 ft 530 kts 90°
2026-05-05 08:14 21.75725 129.91617 30973 ft 530 kts 90°
2026-05-05 08:15 21.75759 129.99541 30969 ft 530 kts 90°
2026-05-05 08:15 21.75793 130.07394 30978 ft 530 kts 90°
2026-05-05 08:16 21.75828 130.15338 30976 ft 531 kts 90°
2026-05-05 08:16 21.75863 130.23221 30974 ft 530 kts 90°
2026-05-05 08:17 21.75899 130.31162 30971 ft 530 kts 90°
2026-05-05 08:17 21.75934 130.39089 30973 ft 530 kts 90°
2026-05-05 08:18 21.75970 130.47007 30972 ft 529 kts 90°
2026-05-05 08:18 21.76006 130.54920 30973 ft 529 kts 90°
2026-05-05 08:19 21.76042 130.62827 30975 ft 528 kts 90°
2026-05-05 08:19 21.76079 130.70733 30976 ft 528 kts 90°
2026-05-05 08:20 21.76116 130.78633 30981 ft 528 kts 90°
2026-05-05 08:20 21.76153 130.86538 30981 ft 529 kts 90°
2026-05-05 08:21 21.76191 130.94447 30970 ft 529 kts 90°
2026-05-05 08:21 21.76228 131.02225 30980 ft 529 kts 90°
2026-05-05 08:22 21.76266 131.10134 30976 ft 529 kts 90°
2026-05-05 08:22 21.76303 131.18038 30977 ft 528 kts 90°
2026-05-05 08:23 21.76341 131.25943 30980 ft 528 kts 90°
2026-05-05 08:23 21.76373 131.32511 30981 ft 528 kts 90°
2026-05-05 08:24 21.76412 131.40403 30978 ft 527 kts 90°
2026-05-05 08:24 21.76450 131.48283 30982 ft 527 kts 90°
2026-05-05 08:25 21.76489 131.56158 30990 ft 526 kts 90°
2026-05-05 08:25 21.76528 131.64025 30984 ft 526 kts 90°
2026-05-05 08:26 21.76567 131.71891 30982 ft 526 kts 90°
2026-05-05 08:26 21.76606 131.79751 30979 ft 525 kts 90°
2026-05-05 08:27 21.76645 131.87610 30984 ft 525 kts 90°
2026-05-05 08:27 21.76685 131.95465 30985 ft 525 kts 90°
2026-05-05 08:28 21.76725 132.03235 30982 ft 525 kts 90°
2026-05-05 08:28 21.76765 132.11087 30982 ft 524 kts 89°
2026-05-05 08:29 21.76805 132.18927 30986 ft 524 kts 89°
2026-05-05 08:30 21.76867 132.30684 30983 ft 524 kts 89°
2026-05-05 08:30 21.76908 132.38515 30983 ft 523 kts 89°
2026-05-05 08:31 21.76949 132.46345 30989 ft 523 kts 89°
2026-05-05 08:31 21.76990 132.54116 30980 ft 523 kts 89°
2026-05-05 08:32 21.77032 132.61936 30981 ft 523 kts 89°
2026-05-05 08:32 21.77074 132.69753 30987 ft 522 kts 89°
2026-05-05 08:33 21.77116 132.77559 30990 ft 522 kts 89°
2026-05-05 08:33 21.77158 132.85373 30990 ft 522 kts 89°
2026-05-05 08:34 21.77201 132.93174 30993 ft 522 kts 89°
2026-05-05 08:34 21.77243 133.00911 30990 ft 522 kts 89°
2026-05-05 08:35 21.77286 133.08707 30999 ft 521 kts 89°
2026-05-05 08:35 21.77329 133.16507 30994 ft 521 kts 89°
2026-05-05 08:36 21.77372 133.24310 30986 ft 521 kts 89°
2026-05-05 08:36 21.77416 133.32107 30994 ft 521 kts 89°
2026-05-05 08:37 21.77459 133.39898 30994 ft 521 kts 89°
2026-05-05 08:37 21.77503 133.47633 30992 ft 520 kts 89°
2026-05-05 08:38 21.77547 133.55407 30995 ft 519 kts 89°
2026-05-05 08:38 21.77591 133.63170 30986 ft 519 kts 90°
2026-05-05 08:39 21.77636 133.70926 30999 ft 518 kts 89°
2026-05-05 08:39 21.77680 133.78675 31001 ft 517 kts 90°
2026-05-05 08:40 21.77726 133.86414 30996 ft 517 kts 90°
2026-05-05 08:40 21.77771 133.94155 30998 ft 517 kts 90°
2026-05-05 08:41 21.77816 134.01809 30997 ft 517 kts 90°
2026-05-05 08:41 21.77862 134.09536 30997 ft 516 kts 89°
2026-05-05 08:42 21.77909 134.17252 30997 ft 516 kts 89°
2026-05-05 08:42 21.77955 134.24966 31004 ft 515 kts 89°
2026-05-05 08:43 21.78002 134.32674 31000 ft 515 kts 89°
2026-05-05 08:43 21.78049 134.40373 31000 ft 515 kts 89°
2026-05-05 08:44 21.78096 134.48074 31009 ft 514 kts 89°
2026-05-05 08:44 21.78143 134.55768 31002 ft 514 kts 90°
2026-05-05 08:45 21.78191 134.63415 31005 ft 514 kts 89°
2026-05-05 08:45 21.78239 134.71103 31004 ft 514 kts 89°
2026-05-05 08:46 21.78287 134.78789 31006 ft 513 kts 89°
2026-05-05 08:46 21.78335 134.86479 31006 ft 513 kts 89°
2026-05-05 08:47 21.78384 134.94160 31003 ft 513 kts 89°
2026-05-05 08:47 21.78432 135.01766 31011 ft 513 kts 89°
2026-05-05 08:48 21.78481 135.09432 31007 ft 513 kts 89°
2026-05-05 08:48 21.78530 135.17100 31009 ft 512 kts 89°
2026-05-05 08:49 21.78579 135.24760 31010 ft 512 kts 89°
2026-05-05 08:49 21.78628 135.32422 31008 ft 512 kts 89°
2026-05-05 08:50 21.78677 135.40036 31013 ft 512 kts 89°
2026-05-05 08:50 21.78727 135.47740 31011 ft 511 kts 89°
2026-05-05 08:51 21.78776 135.55336 31005 ft 511 kts 89°
2026-05-05 08:51 21.78826 135.62974 31013 ft 510 kts 89°
2026-05-05 08:52 21.78875 135.70606 31013 ft 510 kts 89°
2026-05-05 08:52 21.78924 135.78231 31016 ft 509 kts 89°
2026-05-05 08:53 21.78973 135.85842 31013 ft 509 kts 89°
2026-05-05 08:53 21.79023 135.93453 31017 ft 508 kts 89°
2026-05-05 08:54 21.79071 136.00997 31016 ft 508 kts 89°
2026-05-05 08:54 21.79120 136.08595 31019 ft 508 kts 89°
2026-05-05 08:55 21.79169 136.16194 31020 ft 508 kts 89°
2026-05-05 08:55 21.79217 136.23787 31019 ft 508 kts 89°
2026-05-05 08:56 21.79265 136.31380 31021 ft 508 kts 89°
2026-05-05 08:56 21.79313 136.38974 31023 ft 508 kts 89°
2026-05-05 08:57 21.79360 136.46570 31018 ft 508 kts 89°
2026-05-05 08:57 21.79408 136.54168 31024 ft 507 kts 89°
2026-05-05 08:58 21.79454 136.61713 31026 ft 507 kts 89°
2026-05-05 08:58 21.79501 136.69311 31026 ft 507 kts 89°
2026-05-05 08:59 21.79547 136.76901 31024 ft 507 kts 89°
2026-05-05 08:59 21.79593 136.84493 31024 ft 507 kts 89°
2026-05-05 09:00 21.79639 136.92077 31027 ft 507 kts 89°
2026-05-05 09:00 21.79684 136.99657 31031 ft 507 kts 89°
2026-05-05 09:01 21.79729 137.07179 31031 ft 507 kts 89°
2026-05-05 09:01 21.79773 137.14759 31028 ft 506 kts 89°
2026-05-05 09:02 21.79818 137.22289 31029 ft 506 kts 89°
2026-05-05 09:02 21.79862 137.29865 31029 ft 506 kts 89°
2026-05-05 09:03 21.79906 137.37442 31028 ft 506 kts 89°
2026-05-05 09:03 21.79951 137.45012 31026 ft 506 kts 89°
2026-05-05 09:04 21.79995 137.52586 31029 ft 506 kts 89°
2026-05-05 09:04 21.80039 137.60153 31033 ft 506 kts 89°
2026-05-05 09:05 21.80083 137.67724 31029 ft 506 kts 89°
2026-05-05 09:05 21.80127 137.75293 31034 ft 506 kts 89°
2026-05-05 09:06 21.80171 137.82858 31037 ft 506 kts 89°
2026-05-05 09:06 21.80215 137.90425 31040 ft 505 kts 89°
2026-05-05 09:07 21.80258 137.97990 31039 ft 505 kts 89°
2026-05-05 09:07 21.80301 138.05491 31040 ft 505 kts 88°
2026-05-05 09:08 21.80344 138.13051 31038 ft 505 kts 88°
2026-05-05 09:08 21.80387 138.20600 31040 ft 505 kts 88°
2026-05-05 09:09 21.80430 138.28151 31043 ft 504 kts 88°
2026-05-05 09:09 21.80472 138.35692 31042 ft 504 kts 88°
2026-05-05 09:10 21.80507 138.41955 31042 ft 504 kts 88°
2026-05-05 09:10 21.80549 138.49490 31048 ft 504 kts 88°
2026-05-05 09:11 21.80591 138.57025 31043 ft 504 kts 88°
2026-05-05 09:11 21.80633 138.64565 31042 ft 503 kts 88°
2026-05-05 09:12 21.80674 138.72092 31044 ft 503 kts 88°
2026-05-05 09:12 21.80716 138.79623 31044 ft 503 kts 88°
2026-05-05 09:13 21.80757 138.87144 31052 ft 503 kts 88°
2026-05-05 09:13 21.80798 138.94663 31051 ft 502 kts 88°